Location: *
(46.3500°N, 10.9000°E)
Time: 05:18:20
(UTC+00:00)

Cosmos 2278 - Pass Details

Date: 09 April 2020
Orbit: 840 x 852 km, 71.1° (Epoch: 29 May)

Event Time Altitude Azimuth Distance (km) Brightness Sun altitude
Rises 20:23:24 0° 337° (NNW) 3,406 7.9 -23.2°
Reaches altitude 10° 20:26:01 10° 345° (NNW) 2,469 6.9 -23.6°
Maximum altitude 20:31:20 40° 55° (NE) 1,221 4.4 -24.2°
Enters shadow 20:32:00 39° 72° (ENE) 1,250 4.3 -24.3°
